Baton Rouge, LA (70806)

2:44 AM CST on March 06, 2015 (GMT -0600)
Capital Heights | Change Station
CLOSE
Current Station
Personal Weather Station
Location: Baton Rouge, LA
Elevation: 82 ft
Nearby Weather Stations
Active Advisory: Freeze Warning Active Notice: Local Storm Report

Elev 82 ft 30.44 °N, 91.13 °W | Updated 5 seconds ago

Clear
Clear
29.7 °F
Feels Like 30 °F
N
0.0
Wind Variable Wind from NNE
Gusts 3.0 mph

Today
High -- | Low -- °F
--% Chance of Precip.
Yesterday
High -- | Low -- °F
Precip. -- in
6:25 AM 6:06 PM
Full, 100% visible
Pressure 30.50 in
Visibility 10.0 miles
Clouds Clear
Windchill 30 °F
Dew Point 21 °F
Humidity 71%
Rainfall in
Snow Depth Not available.
UV 0 out of 12
Pollen 3.20 out of 12
Air Quality Not available.
Flu Activity Not available.
METAR KBTR 060753Z 36006KT 10SM CLR M02/M08 A3049 RMK AO2 SLP326 T10171078

More Conditions Fewer Conditions

Pressure 30.50 in
Visibility 10.0 miles
Clouds Clear
Windchill 30 °F
Dew Point 21 °F
Humidity 71%
Rainfall in
Snow Depth Not available.
UV 0 out of 12
Pollen 3.20 out of 12
Air Quality Not available.
Flu Activity Not available.
METAR KBTR 060753Z 36006KT 10SM CLR M02/M08 A3049 RMK AO2 SLP326 T10171078

More Conditions Fewer Conditions

10-Day Weather Forecast

Almanac

Astronomy

Mar. 06, 2015 Rise Set
Actual Time
Civil Twilight
Nautical Twilight
Astronomical Twilight
Moon
Length of Visible Light
Length of Day
Tomorrow will be .
, % of the Moon is Illuminated

Today's Extremes

State Highs State Lows

Community

WunderPhotos

Upload Photos

1,803,211 photos uploaded!

WunderBlogs® & News

Nearby

Air Quality

  Air Quality AQ Index Pollutant
Not available.

Snow Depth

Station Depth Elevation

Earthquake Activity

City Distance Mag. Time & Date
Minimum magnitude displayed is 2.5.

Coastal Water Temperatures

Place Temperature

Nearby Weather Stations

Freeze Warning
Statement as of 11:53 PM CST on March 05, 2015

... Freeze warning remains in effect until 9 am CST Friday...

* temperature... temperatures in the upper 20s and lower 30s can
be expected.

* Duration... 8 to 12 hours of freezing temperatures

* impacts... sub-freezing temperatures can damage sensitive
vegetation and are dangerous for outdoor pets.

Precautionary/preparedness actions...

A freeze warning means sub-freezing temperatures are imminent or
highly likely. These conditions will kill crops and other
sensitive vegetation.